INTELSAT 22

Satellite information

Favourite Embed

Satellite Type and Status

PAYLOADIN ORBIT

Key statistics

Satellite INTELSAT 22 at a glance.

Uptime

5012

Days in orbit

Revolutions

≈ 1.0

Per day

Orbit

GEO

Geostationary Orbit

Inclination

0.0

Latest

Satellite identification and parameters

Extended collection of information and parameters for INTELSAT 22.

Object identification

Identified? True

Debris? False

Object name: INTELSAT 22

International designator: 2012-011A

Object number (NORAD): 38098

Object ID (CCSDS): 38098

Country: INTERNATIONAL TELECOMMUNICATIONS SATELLITE ORGANIZATION (INTELSAT) (ITSO)

Current information (Y/N): Y

RCS size: LARGE

Orbital parameters

Period: 1436.105 minutes

Inclination: 0.0007 deg

SMA: 42164.882 km

Apoapsis: 35794.068 km

Periapsis: 35779.425 km

RAAN: 357.2619 deg

Eccentricy: 0.00017364

Argument of periapsis: 270.1968 deg

Mean anomaly: 119.804 deg

Mean motion: 1.0027125 rev/day

Mean motion (dot): -0.00000043 rev/day2

B* drag term: 0.0 1/REarth

Two-line elements (TLE)

Creation date: Dec. 14, 2025, 3:07 a.m.

Reference frame: TEME

Reference center: EARTH

Epoch: Dec. 13, 2025, 3:30 p.m. UTC

TLE line 0: 0 INTELSAT 22

TLE line 1: 1 38098U 12011A 25347.64602376 -.00000043 00000-0 00000-0 0 9996

TLE line 2: 2 38098 0.0007 357.2619 0001736 270.1968 119.8040 1.00271250 5321

Live tracking on map

Real-time ground track for satellite INTELSAT 22.

In-orbit conjunctions

There are no conjunctions computed for INTELSAT 22, at the moment. Check back to stay up to date, as we update our databases every day.

Go to all conjunctions

Associated space launch

INTELSAT 22 was lifted into orbit during the mission ‘Proton-M / Briz-M Enhanced | Intelsat 22’, on board a Proton-M space rocket.

The launch took place on March 25, 2012, 12:10 p.m. from 200/39 (200L).

For more information about the launch, click the button.

Launch to space Proton-M / Briz-M Enhanced | Intelsat 22
Proton-M / Briz-M Enhanced | Intelsat 22

Agency: N/A

Status: Launch Successful

Launch date: March 25, 2012, 12:10 p.m. UTC

Rocket: Proton-M

Launch pad: 200/39 (200L)

Location: Baikonur Cosmodrome, Republic of Kazakhstan

...

Latest news about this satellite

There are no fresh news available about this satellite. Check back as we update our databases every day.


Newsletter sign-up

Weekly statistics, charts and insights to help you stay on top of the space industry.